Deming, NM

2:04 AM MDT on August 29, 2016 (GMT -0600)
Deming Municipal

Weather History for KDMN - July, 2013

Change the Weather History Date:

Friday, July 5, 2013

  Actual Average Record
Temperature  
Mean Temperature 81 °F 81 °F  
Max Temperature 98 °F 97 °F 108 °F (1957)
Min Temperature 64 °F 65 °F 56 °F (1972)
Cooling Degree Days 16    
Growing Degree Days 30 (Base 50)    
Moisture  
Dew Point 51 °F    
Average Humidity 40    
Maximum Humidity 63    
Minimum Humidity 17    
Precipitation  
Precipitation 0.00 in 0.06 in 1.14 in (1988)
Month to date precipitation 0.17 0.26  
Year to date precipitation 0.68 3.37  
Sea Level Pressure  
Sea Level Pressure 29.71 in    
Wind  
Wind Speed 8 mph (West)    
Max Wind Speed 20 mph    
Max Gust Speed 26 mph    
Visibility 10 miles    
Events      
T = Trace of Precipitation, MM = Missing Value Source: NWS Daily Summary

Daily Weather History Graph

Daily Weather History Graph

Search for Another Location

Airport or City:

Trip Planner

Search our weather history database for the weather conditions in past years. The results will help you decide how hot, cold, wet, or windy it might be!

Date:

Astronomy

Jul. 05, 2013 Rise Set
Actual Time 6:09 AM MDT 8:21 PM MDT
Civil Twilight 5:41 AM MDT 8:49 PM MDT
Nautical Twilight 5:07 AM MDT 9:23 PM MDT
Astronomical Twilight 4:30 AM MDT 10:00 PM MDT
Moon 4:08 AM MDT (7/5) 6:21 PM MDT (7/5)
Length of Visible Light 15h 07m
Length of Day
14h 11m
Waning Crescent, 6% of the Moon is Illuminated
Jul 5
Waning Crescent
Jul 8
New
Jul 15
First Quarter
Jul 22
Full
Jul 29
Last Quarter

Hourly Weather History & Observations

Time (MDT) Temp. Heat Index Dew Point Humidity Pressure Visibility Wind Dir Wind Speed Gust Speed Precip Events Conditions
12:53 AM 73.0 °F - 51.1 °F 46% 29.73 in 10.0 mi SW 5.8 mph - N/A   Clear
1:53 AM 71.1 °F - 53.1 °F 53% 29.74 in 10.0 mi SW 4.6 mph - N/A   Clear
2:53 AM 69.1 °F - 53.1 °F 57% 29.74 in 10.0 mi SSW 8.1 mph - N/A   Clear
3:53 AM 66.0 °F - 51.1 °F 59% 29.76 in 10.0 mi Calm Calm - N/A   Clear
4:53 AM 66.0 °F - 52.0 °F 60% 29.75 in 10.0 mi NW 4.6 mph - N/A   Clear
5:53 AM 64.9 °F - 51.1 °F 61% 29.76 in 10.0 mi WSW 4.6 mph - N/A   Clear
6:53 AM 66.0 °F - 53.1 °F 63% 29.78 in 10.0 mi West 4.6 mph - N/A   Clear
7:53 AM 71.1 °F - 54.0 °F 55% 29.78 in 10.0 mi WSW 6.9 mph - N/A   Clear
8:53 AM 79.0 °F - 52.0 °F 39% 29.77 in 10.0 mi WNW 10.4 mph - N/A   Clear
9:53 AM 84.9 °F - 52.0 °F 32% 29.76 in 10.0 mi West 10.4 mph - N/A   Clear
10:53 AM 88.0 °F - 52.0 °F 29% 29.75 in 10.0 mi West 12.7 mph - N/A   Clear
11:53 AM 90.0 °F - 51.1 °F 26% 29.74 in 10.0 mi WSW 9.2 mph - N/A   Clear
12:53 PM 93.0 °F - 48.9 °F 22% 29.72 in 10.0 mi Variable 4.6 mph - N/A   Clear
1:53 PM 96.1 °F - 48.9 °F 20% 29.68 in 10.0 mi SW 6.9 mph - N/A   Clear
2:53 PM 96.1 °F - 46.9 °F 19% 29.65 in 10.0 mi SW 4.6 mph - N/A   Clear
3:53 PM 96.1 °F - 45.0 °F 17% 29.63 in 10.0 mi SW 5.8 mph - N/A   Clear
4:53 PM 97.0 °F - 46.9 °F 18% 29.61 in 10.0 mi West 10.4 mph - N/A   Clear
5:53 PM 95.0 °F - 48.0 °F 20% 29.62 in 10.0 mi WSW 10.4 mph 17.3 mph N/A   Clear
6:53 PM 90.0 °F - 46.9 °F 23% 29.65 in 10.0 mi WNW 15.0 mph 23.0 mph N/A   Clear
7:53 PM 89.1 °F - 51.1 °F 27% 29.64 in 10.0 mi NW 10.4 mph - N/A   Clear
8:53 PM 84.9 °F 83.6 °F 55.0 °F 36% 29.65 in 10.0 mi WNW 15.0 mph 20.7 mph N/A   Clear
9:53 PM 82.0 °F 81.7 °F 57.0 °F 42% 29.69 in 10.0 mi West 8.1 mph - N/A   Clear
10:53 PM 80.1 °F 80.2 °F 55.9 °F 43% 29.72 in 10.0 mi WNW 6.9 mph - N/A   Clear
11:53 PM 78.1 °F - 55.9 °F 46% 29.72 in 10.0 mi SW 5.8 mph - N/A   Clear